TimeCST,TemperatureF,Dew PointF,Humidity,Sea Level PressureIn,VisibilityMPH,Wind Direction,Wind SpeedMPH,Gust SpeedMPH,PrecipitationIn,Events,Conditions,WindDirDegrees,DateUTC
12:53 AM,25.0,18.0,75,29.90,10.0,SW,3.5,-,N/A,,Clear,220,2014-01-20 06:53:00
1:53 AM,26.1,17.1,69,29.91,10.0,NW,8.1,-,N/A,,Clear,320,2014-01-20 07:53:00
2:53 AM,21.0,15.1,78,29.93,10.0,WNW,4.6,-,N/A,,Clear,300,2014-01-20 08:53:00
3:53 AM,21.0,15.1,78,29.97,10.0,WNW,5.8,-,N/A,,Clear,290,2014-01-20 09:53:00
4:53 AM,23.0,16.0,74,29.99,10.0,West,5.8,-,N/A,,Clear,280,2014-01-20 10:53:00
5:53 AM,33.1,19.0,56,30.06,10.0,North,16.1,-,N/A,,Clear,350,2014-01-20 11:53:00
6:53 AM,34.0,19.0,54,30.10,10.0,NNW,9.2,-,N/A,,Clear,330,2014-01-20 12:53:00
7:53 AM,36.0,19.0,50,30.14,10.0,NNW,10.4,-,N/A,,Clear,330,2014-01-20 13:53:00
8:53 AM,34.0,19.9,56,30.17,10.0,NW,6.9,-,N/A,,Partly Cloudy,310,2014-01-20 14:53:00
9:53 AM,39.9,18.0,41,30.19,10.0,NNW,18.4,31.1,N/A,,Partly Cloudy,340,2014-01-20 15:53:00
10:53 AM,42.1,18.0,38,30.23,10.0,NNW,18.4,23.0,N/A,,Clear,330,2014-01-20 16:53:00
11:53 AM,46.0,18.0,33,30.22,10.0,NW,23.0,29.9,N/A,,Clear,320,2014-01-20 17:53:00
12:53 PM,46.9,17.1,30,30.23,10.0,NNW,25.3,31.1,N/A,,Clear,330,2014-01-20 18:53:00
1:53 PM,48.0,15.1,27,30.21,10.0,NW,26.5,38.0,N/A,,Clear,320,2014-01-20 19:53:00
2:53 PM,46.0,14.0,28,30.23,10.0,NNW,23.0,35.7,N/A,,Scattered Clouds,340,2014-01-20 20:53:00
3:53 PM,43.0,16.0,34,30.29,10.0,North,26.5,35.7,N/A,,Clear,350,2014-01-20 21:53:00
4:53 PM,37.9,18.0,45,30.33,10.0,North,23.0,31.1,N/A,,Clear,350,2014-01-20 22:53:00
5:53 PM,32.0,17.1,54,30.37,10.0,NNW,16.1,24.2,N/A,,Clear,340,2014-01-20 23:53:00
6:53 PM,28.0,15.1,58,30.39,10.0,North,13.8,-,N/A,,Clear,360,2014-01-21 00:53:00
7:53 PM,23.0,12.9,65,30.43,10.0,North,6.9,-,N/A,,Clear,350,2014-01-21 01:53:00
8:53 PM,21.0,10.9,65,30.45,10.0,North,9.2,-,N/A,,Clear,350,2014-01-21 02:53:00
9:53 PM,17.1,8.1,68,30.48,10.0,NNE,10.4,-,N/A,,Clear,20,2014-01-21 03:53:00
10:53 PM,12.9,6.1,74,30.50,10.0,North,3.5,-,N/A,,Clear,360,2014-01-21 04:53:00
11:26 PM,12.2,6.8,79,30.41,10.0,North,3.5,-,N/A,,Mostly Cloudy,10,2014-01-21 05:26:00
11:53 PM,14.0,7.0,74,30.49,10.0,WNW,3.5,-,N/A,,Overcast,290,2014-01-21 05:53:00